Flag for Azerbaijan Weather past 2 weeks in Sumqayit, Azerbaijan

Now
68 °F

Overcast.


Feels Like: 68 °F
Forecast: 66 / 73 °F
Wind: 9 mph from Northwest

Location: Baku / Bine Airport

Current Time: Sep 23, 2014 at 1:35:30 AM

Latest Report: Sep 23, 2014 at 1:00 AM


Visibility: N/A

Pressure: 29.92 "Hg

Humidity: 73%

Dew point: 59 °F

Location of SumqayitLocation

Historic Weather in Sumqayit — Graph

°F

Sumqayit temperature yesterday

Maximum temperature yesterday: 77 °F (at 3:30 PM)
Minimum temperature yesterday: 66 °F (at 1:00 AM)
Average temperature yesterday: 70 °F

Past Weeks' High & Low Weather Summary

 TemperatureHumidityPressure
High93 °F (Sep 9, 2:30 PM)89% (Sep 10, 12:00 AM)30.18 "Hg (Sep 10, 12:00 AM)
Low61 °F (Sep 20, 7:30 AM)20% (Sep 8, 4:30 PM)29.71 "Hg (Sep 9, 3:30 PM)
Average75 °F63%29.91 "Hg
* Reported Midnight between Sep 7 and Sep 8 — Sep 23 12:30 AM, Sumqayit, Weather by CustomWeather, © 2014

Note: Actual official high and low records may vary slightly from our data, if they occured in-between our weather recording intervals... More about our weather records

Advertising

Sumqayit weather history for previous 24 hours

 ConditionsComfort  
Time TempWeatherWind HumidityBarometerVisibility
12:30 AM
Sep 23
68 °FOvercast.9 mph73%29.92 "HgN/A
12:00 AM68 °FOvercast.9 mph73%29.95 "HgN/A
11:30 PM
Sep 22
70 °FOvercast.9 mph69%29.95 "HgN/A
11:00 PM68 °FOvercast.8 mph78%29.95 "HgN/A
10:30 PM70 °FOvercast.9 mph73%29.95 "HgN/A
10:00 PM70 °FOvercast.10 mph73%29.95 "HgN/A
9:30 PM70 °FOvercast.13 mph73%29.95 "HgN/A
9:00 PM68 °FOvercast.13 mph78%29.92 "HgN/A
8:30 PM70 °FOvercast.12 mph73%29.92 "HgN/A
8:00 PM70 °FOvercast.12 mph73%29.92 "HgN/A
7:30 PM70 °FOvercast.12 mph73%29.92 "HgN/A
7:00 PM70 °FPartly sunny.13 mph69%29.89 "HgN/A
6:30 PM72 °FPartly sunny.12 mph65%29.89 "HgN/A
6:00 PM72 °FPartly sunny.12 mph65%29.89 "HgN/A
5:30 PM72 °FScattered clouds.13 mph65%29.89 "HgN/A
5:00 PM73 °FScattered clouds.15 mph61%29.89 "HgN/A
4:30 PM73 °FScattered clouds.14 mph61%29.89 "HgN/A
4:00 PM75 °FScattered clouds.15 mph57%29.89 "HgN/A
3:30 PM77 °FScattered clouds.14 mph54%29.89 "HgN/A
3:00 PM75 °FScattered clouds.15 mph57%29.89 "HgN/A
2:30 PM75 °FPartly sunny.15 mph54%29.92 "HgN/A
2:00 PM73 °FBroken clouds.15 mph61%29.92 "HgN/A
1:30 PM73 °FBroken clouds.15 mph61%29.92 "HgN/A
1:00 PM75 °FBroken clouds.16 mph54%29.92 "HgN/A
12:30 PM73 °FBroken clouds.16 mph57%29.95 "HgN/A
12:00 PM75 °FBroken clouds.17 mph57%29.95 "HgN/A
11:30 AM73 °FBroken clouds.17 mph57%29.95 "HgN/A
11:00 AM72 °FMore clouds than sun.16 mph61%29.95 "HgN/A
10:30 AM72 °FPartly sunny.16 mph61%29.95 "HgN/A
10:00 AM70 °FPartly sunny.16 mph64%29.95 "HgN/A
9:30 AM70 °FPartly sunny.14 mph69%29.95 "HgN/A
9:00 AM68 °FPartly sunny.13 mph78%29.92 "HgN/A
8:30 AM68 °FPartly sunny.10 mph78%29.92 "HgN/A
8:00 AM68 °FPartly cloudy.12 mph73%29.92 "HgN/A
7:30 AM68 °FPartly cloudy.10 mph78%29.92 "HgN/A
7:00 AM68 °FPartly cloudy.10 mph78%29.92 "HgN/A
6:30 AM66 °FPartly cloudy.9 mph78%29.89 "HgN/A
6:00 AM68 °FPartly cloudy.10 mph73%29.92 "HgN/A
5:00 AM68 °FPassing clouds.12 mph73%29.89 "HgN/A
4:30 AM68 °FPartly cloudy.15 mph73%29.89 "HgN/A
4:00 AM68 °FMostly cloudy.14 mph73%29.89 "HgN/A
3:30 AM66 °FMostly cloudy.17 mph78%29.86 "HgN/A
3:00 AM66 °FPartly cloudy.13 mph78%29.92 "HgN/A
2:30 AM66 °FPartly cloudy.16 mph83%29.92 "HgN/A
2:00 AM66 °FSprinkles. Partly cloudy.14 mph83%29.92 "HgN/A
1:30 AM66 °FPartly cloudy.13 mph83%29.92 "HgN/A
1:00 AM66 °FSprinkles. Partly cloudy.17 mph83%29.92 "HgN/A
Weather by CustomWeather, © 2014

See weather overviewHow to use our weather pages